Time,TemperatureF,DewpointF,PressureIn,WindDirection,WindDirectionDegrees,WindSpeedMPH,WindSpeedGustMPH,Humidity,HourlyPrecipIn,Conditions,Clouds,dailyrainin,SoftwareType,DateUTC
2013-04-08 00:00:00,43.5,40.5,30.02,ENE,57,0.0,0.0,89,0.00,,,0.00,meteobridge,2013-04-08 04:00:00,
2013-04-08 00:01:00,43.5,40.5,30.02,ENE,57,0.0,0.0,89,0.00,,,0.00,meteobridge,2013-04-08 04:01:00,
2013-04-08 00:07:00,43.5,40.5,30.02,ENE,57,0.0,0.0,89,0.00,,,0.00,meteobridge,2013-04-08 04:07:00,
2013-04-08 00:08:00,43.3,40.3,30.02,ENE,57,0.0,0.0,89,0.00,,,0.00,meteobridge,2013-04-08 04:08:00,
2013-04-08 00:13:00,43.3,40.3,30.02,ENE,57,0.0,0.0,89,0.00,,,0.00,meteobridge,2013-04-08 04:13:00,
2013-04-08 00:19:00,43.3,40.6,30.02,ENE,57,0.0,0.0,90,0.00,,,0.00,meteobridge,2013-04-08 04:19:00,
2013-04-08 00:24:00,43.3,40.3,30.02,ENE,57,0.0,0.0,89,0.00,,,0.00,meteobridge,2013-04-08 04:24:00,
2013-04-08 00:29:00,43.3,40.6,30.02,ENE,57,0.0,0.0,90,0.00,,,0.00,meteobridge,2013-04-08 04:29:00,
2013-04-08 00:35:00,43.2,40.5,30.02,ENE,57,0.0,0.0,90,0.00,,,0.00,meteobridge,2013-04-08 04:35:00,
2013-04-08 00:40:00,43.2,40.5,30.02,ENE,57,0.0,0.0,90,0.00,,,0.00,meteobridge,2013-04-08 04:40:00,
2013-04-08 00:46:00,43.2,40.5,30.02,ENE,57,0.0,0.0,90,0.00,,,0.00,meteobridge,2013-04-08 04:46:00,
2013-04-08 00:52:00,43.0,39.9,30.02,ENE,57,0.0,0.0,89,0.00,,,0.00,meteobridge,2013-04-08 04:52:00,
2013-04-08 00:57:00,42.6,39.4,30.02,ENE,57,0.0,0.0,88,0.00,,,0.00,meteobridge,2013-04-08 04:57:00,
2013-04-08 01:02:00,42.4,39.2,30.02,ENE,57,0.0,0.0,88,0.00,,,0.00,meteobridge,2013-04-08 05:02:00,
2013-04-08 01:08:00,42.4,39.2,30.02,ENE,57,0.0,0.0,88,0.00,,,0.00,meteobridge,2013-04-08 05:08:00,
2013-04-08 01:14:00,42.3,39.2,30.02,ENE,57,0.0,0.0,89,0.00,,,0.00,meteobridge,2013-04-08 05:14:00,
2013-04-08 01:19:00,42.1,39.4,30.01,ENE,57,0.0,0.0,90,0.00,,,0.00,meteobridge,2013-04-08 05:19:00,
2013-04-08 01:25:00,41.7,39.0,30.01,ENE,57,0.0,0.0,90,0.00,,,0.00,meteobridge,2013-04-08 05:25:00,
2013-04-08 01:30:00,41.7,38.7,30.02,ENE,57,0.0,0.0,89,0.00,,,0.00,meteobridge,2013-04-08 05:30:00,
2013-04-08 01:36:00,41.5,38.5,30.01,ENE,57,0.0,0.0,89,0.00,,,0.00,meteobridge,2013-04-08 05:36:00,
2013-04-08 01:41:00,41.4,38.7,30.01,ENE,57,0.0,0.0,90,0.00,,,0.00,meteobridge,2013-04-08 05:41:00,
2013-04-08 01:47:00,41.2,38.5,30.01,ENE,57,0.0,0.0,90,0.00,,,0.00,meteobridge,2013-04-08 05:47:00,
2013-04-08 01:52:00,41.0,38.3,30.02,ENE,57,0.0,0.0,90,0.00,,,0.00,meteobridge,2013-04-08 05:52:00,
2013-04-08 01:58:00,40.8,38.1,30.01,ENE,57,0.0,0.0,90,0.00,,,0.00,meteobridge,2013-04-08 05:58:00,
2013-04-08 02:03:00,40.8,38.7,30.01,ENE,57,0.0,0.0,92,0.00,,,0.00,meteobridge,2013-04-08 06:03:00,
2013-04-08 02:08:00,40.8,38.7,30.01,ENE,57,0.0,0.0,92,0.00,,,0.00,meteobridge,2013-04-08 06:08:00,
2013-04-08 02:14:00,40.6,38.3,30.01,ENE,57,0.0,0.0,91,0.00,,,0.00,meteobridge,2013-04-08 06:14:00,
2013-04-08 02:19:00,40.6,38.3,30.01,ENE,57,0.0,0.0,91,0.00,,,0.00,meteobridge,2013-04-08 06:19:00,
2013-04-08 02:25:00,40.5,38.1,30.01,ENE,57,0.0,0.0,91,0.00,,,0.00,meteobridge,2013-04-08 06:25:00,
2013-04-08 02:30:00,40.5,38.1,30.01,ENE,57,0.0,0.0,91,0.00,,,0.00,meteobridge,2013-04-08 06:30:00,
2013-04-08 02:35:00,40.3,38.1,30.01,ENE,57,0.0,0.0,92,0.00,,,0.00,meteobridge,2013-04-08 06:35:00,
2013-04-08 02:40:00,40.3,38.1,30.01,ENE,57,0.0,0.0,92,0.00,,,0.00,meteobridge,2013-04-08 06:40:00,
2013-04-08 02:46:00,40.3,38.1,30.01,ENE,57,0.0,0.0,92,0.00,,,0.00,meteobridge,2013-04-08 06:46:00,
2013-04-08 02:51:00,40.1,37.9,30.00,East,86,0.9,2.0,92,0.00,,,0.00,meteobridge,2013-04-08 06:51:00,
2013-04-08 02:57:00,39.9,37.8,30.01,East,88,0.0,0.0,92,0.00,,,0.00,meteobridge,2013-04-08 06:57:00,
2013-04-08 03:02:00,39.9,37.8,30.01,East,88,0.0,0.0,92,0.00,,,0.00,meteobridge,2013-04-08 07:02:00,
2013-04-08 03:08:00,39.7,37.6,30.01,East,88,0.0,0.0,92,0.00,,,0.00,meteobridge,2013-04-08 07:08:00,
2013-04-08 03:13:00,39.7,37.9,30.00,East,88,0.0,0.0,93,0.00,,,0.00,meteobridge,2013-04-08 07:13:00,
2013-04-08 03:19:00,39.7,37.9,30.00,East,88,0.0,2.0,93,0.00,,,0.00,meteobridge,2013-04-08 07:19:00,
2013-04-08 03:25:00,39.7,37.9,30.00,East,88,0.0,0.0,93,0.00,,,0.00,meteobridge,2013-04-08 07:25:00,
2013-04-08 03:30:00,39.7,37.9,30.00,East,88,0.0,0.9,93,0.00,,,0.00,meteobridge,2013-04-08 07:30:00,
2013-04-08 03:36:00,39.7,37.9,30.00,East,88,0.0,0.0,93,0.00,,,0.00,meteobridge,2013-04-08 07:36:00,
2013-04-08 03:41:00,39.7,37.9,30.00,East,88,0.0,0.0,93,0.00,,,0.00,meteobridge,2013-04-08 07:41:00,
2013-04-08 03:46:00,39.7,37.9,30.00,East,88,0.0,0.0,93,0.00,,,0.00,meteobridge,2013-04-08 07:46:00,
2013-04-08 03:51:00,39.6,37.8,30.00,East,88,0.0,0.0,93,0.00,,,0.00,meteobridge,2013-04-08 07:51:00,
2013-04-08 03:57:00,39.6,37.8,30.00,East,88,0.0,0.0,93,0.00,,,0.00,meteobridge,2013-04-08 07:57:00,
2013-04-08 04:02:00,39.6,37.8,29.99,East,88,0.0,0.0,93,0.00,,,0.00,meteobridge,2013-04-08 08:02:00,
2013-04-08 04:07:00,39.6,37.8,30.00,East,88,0.0,0.0,93,0.00,,,0.00,meteobridge,2013-04-08 08:07:00,
2013-04-08 04:13:00,39.6,37.8,29.99,East,88,0.0,0.0,93,0.00,,,0.00,meteobridge,2013-04-08 08:13:00,
2013-04-08 04:19:00,39.4,37.6,29.99,East,88,0.0,0.0,93,0.00,,,0.00,meteobridge,2013-04-08 08:19:00,
2013-04-08 04:24:00,39.4,37.6,29.99,East,88,0.0,0.0,93,0.00,,,0.00,meteobridge,2013-04-08 08:24:00,
2013-04-08 04:29:00,39.2,37.4,30.00,East,88,0.0,0.0,93,0.00,,,0.00,meteobridge,2013-04-08 08:29:00,
2013-04-08 04:34:00,39.0,37.2,30.00,East,88,0.0,0.0,93,0.00,,,0.00,meteobridge,2013-04-08 08:34:00,
2013-04-08 04:39:00,39.2,37.6,30.00,East,88,0.0,0.0,94,0.00,,,0.00,meteobridge,2013-04-08 08:39:00,
2013-04-08 04:44:00,39.0,37.4,30.00,East,88,0.0,0.0,94,0.00,,,0.00,meteobridge,2013-04-08 08:44:00,
2013-04-08 04:49:00,39.0,37.4,30.00,East,101,0.0,0.9,94,0.00,,,0.00,meteobridge,2013-04-08 08:49:00,
2013-04-08 04:55:00,39.0,37.4,30.00,East,101,0.0,0.0,94,0.00,,,0.00,meteobridge,2013-04-08 08:55:00,
2013-04-08 05:00:00,39.0,37.4,30.00,East,100,0.0,0.0,94,0.00,,,0.00,meteobridge,2013-04-08 09:00:00,
2013-04-08 05:05:00,39.0,37.4,30.00,East,101,0.0,0.0,94,0.00,,,0.00,meteobridge,2013-04-08 09:05:00,
2013-04-08 05:10:00,39.0,37.4,30.00,East,100,0.0,0.0,94,0.00,,,0.00,meteobridge,2013-04-08 09:10:00,
2013-04-08 05:16:00,38.8,37.0,30.01,East,101,0.0,0.0,93,0.00,,,0.00,meteobridge,2013-04-08 09:16:00,
2013-04-08 05:21:00,38.8,36.7,30.01,East,100,0.0,0.0,92,0.00,,,0.00,meteobridge,2013-04-08 09:21:00,
2013-04-08 05:26:00,38.7,36.9,30.01,East,101,0.0,0.0,93,0.00,,,0.00,meteobridge,2013-04-08 09:26:00,
2013-04-08 05:32:00,38.7,37.0,30.01,East,101,0.0,0.0,94,0.00,,,0.00,meteobridge,2013-04-08 09:32:00,
2013-04-08 05:37:00,38.5,36.9,30.02,East,100,0.0,0.0,94,0.00,,,0.00,meteobridge,2013-04-08 09:37:00,
2013-04-08 05:43:00,38.5,36.9,30.01,East,101,0.0,0.0,94,0.00,,,0.00,meteobridge,2013-04-08 09:43:00,
2013-04-08 05:48:00,38.5,36.9,30.02,East,100,0.0,0.0,94,0.00,,,0.00,meteobridge,2013-04-08 09:48:00,
2013-04-08 05:53:00,38.5,36.7,30.02,East,100,0.0,0.0,93,0.00,,,0.00,meteobridge,2013-04-08 09:53:00,
2013-04-08 05:59:00,38.1,36.3,30.02,ESE,102,0.9,2.0,93,0.00,,,0.00,meteobridge,2013-04-08 09:59:00,
2013-04-08 06:04:00,38.1,36.3,30.03,ESE,102,0.0,0.0,93,0.00,,,0.00,meteobridge,2013-04-08 10:04:00,
2013-04-08 06:09:00,38.1,36.5,30.03,ESE,102,0.0,0.0,94,0.00,,,0.00,meteobridge,2013-04-08 10:09:00,
2013-04-08 06:15:00,37.9,36.3,30.03,ESE,102,0.0,0.0,94,0.00,,,0.00,meteobridge,2013-04-08 10:15:00,
2013-04-08 06:20:00,37.9,36.3,30.04,ESE,102,0.0,0.0,94,0.00,,,0.00,meteobridge,2013-04-08 10:20:00,
2013-04-08 06:26:00,37.9,36.3,30.04,ESE,102,0.0,0.0,94,0.00,,,0.00,meteobridge,2013-04-08 10:26:00,
2013-04-08 06:31:00,37.9,36.3,30.04,ESE,102,0.0,0.0,94,0.00,,,0.00,meteobridge,2013-04-08 10:31:00,
2013-04-08 06:36:00,37.9,36.3,30.04,ESE,102,0.0,0.0,94,0.00,,,0.00,meteobridge,2013-04-08 10:36:00,
2013-04-08 06:41:00,37.9,36.3,30.04,ESE,102,0.0,0.0,94,0.00,,,0.00,meteobridge,2013-04-08 10:41:00,
2013-04-08 06:47:00,37.9,36.3,30.05,ESE,102,0.0,0.0,94,0.00,,,0.00,meteobridge,2013-04-08 10:47:00,
2013-04-08 06:52:00,37.9,36.3,30.05,ESE,102,0.0,0.0,94,0.00,,,0.00,meteobridge,2013-04-08 10:52:00,
2013-04-08 06:57:00,37.9,36.7,30.05,ESE,102,0.0,0.0,95,0.00,,,0.00,meteobridge,2013-04-08 10:57:00,
2013-04-08 07:03:00,37.9,36.7,30.05,ESE,102,0.0,0.0,95,0.00,,,0.00,meteobridge,2013-04-08 11:03:00,
2013-04-08 07:08:00,38.1,36.9,30.06,ESE,102,0.0,0.0,95,0.00,,,0.00,meteobridge,2013-04-08 11:08:00,
2013-04-08 07:13:00,38.1,36.9,30.06,ESE,102,0.0,2.0,95,0.00,,,0.00,meteobridge,2013-04-08 11:13:00,
2013-04-08 07:19:00,38.1,36.9,30.06,ESE,102,0.9,0.9,95,0.00,,,0.00,meteobridge,2013-04-08 11:19:00,
2013-04-08 07:24:00,38.5,37.4,30.06,SE,132,0.9,2.0,96,0.00,,,0.00,meteobridge,2013-04-08 11:24:00,
2013-04-08 07:29:00,38.8,37.8,30.06,SE,132,2.0,2.0,96,0.00,,,0.00,meteobridge,2013-04-08 11:29:00,
2013-04-08 07:34:00,39.4,38.3,30.06,SE,132,0.0,2.0,96,0.00,,,0.00,meteobridge,2013-04-08 11:34:00,
2013-04-08 07:40:00,39.7,38.7,30.06,SE,132,0.0,2.0,96,0.00,,,0.00,meteobridge,2013-04-08 11:40:00,
2013-04-08 07:46:00,40.3,39.6,30.06,SE,132,0.0,0.0,97,0.00,,,0.00,meteobridge,2013-04-08 11:46:00,
2013-04-08 07:51:00,40.6,39.9,30.06,SE,132,0.0,0.0,97,0.00,,,0.00,meteobridge,2013-04-08 11:51:00,
2013-04-08 07:57:00,40.8,40.1,30.07,SE,132,0.0,0.0,97,0.00,,,0.00,meteobridge,2013-04-08 11:57:00,
2013-04-08 08:02:00,41.4,40.6,30.07,SE,132,0.0,0.0,97,0.00,,,0.00,meteobridge,2013-04-08 12:02:00,
2013-04-08 08:07:00,41.7,41.0,30.07,SE,132,0.0,0.0,97,0.00,,,0.00,meteobridge,2013-04-08 12:07:00,
2013-04-08 08:13:00,42.3,41.5,30.07,SE,132,0.0,0.0,97,0.00,,,0.00,meteobridge,2013-04-08 12:13:00,
2013-04-08 08:19:00,42.6,41.9,30.07,SE,132,0.0,0.0,97,0.00,,,0.00,meteobridge,2013-04-08 12:19:00,
2013-04-08 08:24:00,43.2,42.4,30.07,SE,132,0.0,0.0,97,0.00,,,0.00,meteobridge,2013-04-08 12:24:00,
2013-04-08 08:29:00,43.5,41.7,30.07,SE,132,0.0,0.0,93,0.00,,,0.00,meteobridge,2013-04-08 12:29:00,
2013-04-08 08:35:00,43.9,41.7,30.07,SE,132,0.0,0.0,92,0.00,,,0.00,meteobridge,2013-04-08 12:35:00,
2013-04-08 08:40:00,44.2,41.7,30.08,SE,132,0.0,0.0,91,0.00,,,0.00,meteobridge,2013-04-08 12:40:00,
2013-04-08 08:46:00,44.8,41.7,30.08,SE,132,0.0,0.9,89,0.00,,,0.00,meteobridge,2013-04-08 12:46:00,
2013-04-08 08:51:00,45.3,41.9,30.08,SE,134,0.0,0.9,88,0.00,,,0.00,meteobridge,2013-04-08 12:51:00,
2013-04-08 08:56:00,45.9,41.9,30.08,NE,41,2.0,2.0,86,0.00,,,0.00,meteobridge,2013-04-08 12:56:00,
2013-04-08 09:02:00,46.6,41.7,30.08,NE,34,0.0,0.0,83,0.00,,,0.00,meteobridge,2013-04-08 13:02:00,
2013-04-08 09:07:00,46.9,42.1,30.07,NE,34,0.9,0.9,83,0.00,,,0.00,meteobridge,2013-04-08 13:07:00,
2013-04-08 09:12:00,47.5,42.3,30.07,NE,34,0.0,0.0,82,0.00,,,0.00,meteobridge,2013-04-08 13:12:00,
2013-04-08 09:17:00,47.8,41.9,30.08,NE,34,0.0,0.9,80,0.00,,,0.00,meteobridge,2013-04-08 13:17:00,
2013-04-08 09:23:00,48.6,41.0,30.08,North,5,0.9,2.9,75,0.00,,,0.00,meteobridge,2013-04-08 13:23:00,
2013-04-08 09:28:00,49.3,40.6,30.08,NE,34,0.9,2.9,72,0.00,,,0.00,meteobridge,2013-04-08 13:28:00,
2013-04-08 09:33:00,49.8,40.5,30.08,NE,34,2.0,2.9,70,0.00,,,0.00,meteobridge,2013-04-08 13:33:00,
2013-04-08 09:38:00,50.4,40.3,30.08,NNE,32,0.0,2.0,68,0.00,,,0.00,meteobridge,2013-04-08 13:38:00,
2013-04-08 09:44:00,50.7,40.1,30.09,NNW,344,0.9,4.0,67,0.00,,,0.00,meteobridge,2013-04-08 13:44:00,
2013-04-08 09:49:00,51.1,40.1,30.09,NNE,28,0.9,4.0,66,0.00,,,0.00,meteobridge,2013-04-08 13:49:00,
2013-04-08 09:54:00,51.3,40.6,30.09,WNW,303,0.9,2.9,67,0.00,,,0.00,meteobridge,2013-04-08 13:54:00,
2013-04-08 09:59:00,51.6,39.9,30.09,NW,311,2.0,2.9,64,0.00,,,0.00,meteobridge,2013-04-08 13:59:00,
2013-04-08 10:05:00,52.2,40.3,30.09,WNW,300,2.0,4.0,64,0.00,,,0.00,meteobridge,2013-04-08 14:05:00,
2013-04-08 10:10:00,52.3,40.1,30.09,NW,312,0.9,4.9,63,0.00,,,0.00,meteobridge,2013-04-08 14:10:00,
2013-04-08 10:15:00,52.7,40.5,30.09,North,355,2.0,2.9,63,0.00,,,0.00,meteobridge,2013-04-08 14:15:00,
2013-04-08 10:20:00,53.1,39.9,30.09,WNW,297,4.9,6.0,61,0.00,,,0.00,meteobridge,2013-04-08 14:20:00,
2013-04-08 10:26:00,53.4,39.9,30.09,West,271,2.0,6.0,60,0.00,,,0.00,meteobridge,2013-04-08 14:26:00,
2013-04-08 10:31:00,53.8,39.7,30.09,West,281,0.9,4.0,59,0.00,,,0.00,meteobridge,2013-04-08 14:31:00,
2013-04-08 10:36:00,54.1,39.7,30.09,NW,304,2.0,2.9,58,0.00,,,0.00,meteobridge,2013-04-08 14:36:00,
2013-04-08 10:42:00,54.3,39.4,30.09,NW,326,2.0,4.0,57,0.00,,,0.00,meteobridge,2013-04-08 14:42:00,
2013-04-08 10:47:00,54.5,39.6,30.10,NNW,342,2.9,4.0,57,0.00,,,0.00,meteobridge,2013-04-08 14:47:00,
2013-04-08 10:52:00,54.7,39.7,30.09,NW,324,0.9,2.0,57,0.00,,,0.00,meteobridge,2013-04-08 14:52:00,
2013-04-08 10:58:00,54.9,39.9,30.09,West,279,0.9,4.0,57,0.00,,,0.00,meteobridge,2013-04-08 14:58:00,
2013-04-08 11:03:00,55.2,39.7,30.09,NNW,337,0.0,2.9,56,0.00,,,0.00,meteobridge,2013-04-08 15:03:00,
2013-04-08 11:08:00,55.6,39.7,30.10,WNW,298,2.9,4.9,55,0.00,,,0.00,meteobridge,2013-04-08 15:08:00,
2013-04-08 11:13:00,55.8,39.4,30.09,WNW,301,2.9,4.9,54,0.00,,,0.00,meteobridge,2013-04-08 15:13:00,
2013-04-08 11:18:00,55.9,39.0,30.09,NW,309,2.0,2.9,53,0.00,,,0.00,meteobridge,2013-04-08 15:18:00,
2013-04-08 11:24:00,56.3,39.4,30.09,WNW,300,4.0,4.9,53,0.00,,,0.00,meteobridge,2013-04-08 15:24:00,
2013-04-08 11:29:00,56.7,39.7,30.09,North,355,0.9,2.9,53,0.00,,,0.00,meteobridge,2013-04-08 15:29:00,
2013-04-08 11:35:00,56.8,39.4,30.09,North,5,4.0,4.0,52,0.00,,,0.00,meteobridge,2013-04-08 15:35:00,
2013-04-08 11:40:00,57.2,39.7,30.09,NW,313,0.9,2.0,52,0.00,,,0.00,meteobridge,2013-04-08 15:40:00,
2013-04-08 11:45:00,57.6,40.1,30.09,WNW,296,0.9,2.9,52,0.00,,,0.00,meteobridge,2013-04-08 15:45:00,
2013-04-08 11:50:00,57.9,39.9,30.09,North,10,0.0,4.0,51,0.00,,,0.00,meteobridge,2013-04-08 15:50:00,
2013-04-08 11:56:00,58.6,40.1,30.08,NNW,346,2.9,4.0,50,0.00,,,0.00,meteobridge,2013-04-08 15:56:00,
2013-04-08 12:01:00,58.8,38.7,30.09,WNW,284,2.0,4.9,47,0.00,,,0.00,meteobridge,2013-04-08 16:01:00,
2013-04-08 12:06:00,59.0,39.9,30.09,WNW,292,2.0,4.0,49,0.00,,,0.00,meteobridge,2013-04-08 16:06:00,
2013-04-08 12:12:00,59.2,39.0,30.09,WSW,251,4.0,4.0,47,0.00,,,0.00,meteobridge,2013-04-08 16:12:00,
2013-04-08 12:17:00,59.4,39.7,30.09,SSW,193,2.9,10.1,48,0.00,,,0.00,meteobridge,2013-04-08 16:17:00,
2013-04-08 12:22:00,59.5,39.4,30.09,NNW,332,2.9,2.9,47,0.00,,,0.00,meteobridge,2013-04-08 16:22:00,
2013-04-08 12:27:00,59.9,40.1,30.09,WNW,288,2.0,6.9,48,0.00,,,0.00,meteobridge,2013-04-08 16:27:00,
2013-04-08 12:32:00,60.4,39.0,30.09,WNW,298,2.9,6.0,45,0.00,,,0.00,meteobridge,2013-04-08 16:32:00,
2013-04-08 12:38:00,60.8,39.4,30.09,WNW,298,4.9,8.1,45,0.00,,,0.00,meteobridge,2013-04-08 16:38:00,
2013-04-08 12:43:00,61.5,38.8,30.09,WNW,288,4.0,4.0,43,0.00,,,0.00,meteobridge,2013-04-08 16:43:00,
2013-04-08 12:48:00,62.2,38.3,30.09,WNW,290,2.0,6.0,41,0.00,,,0.00,meteobridge,2013-04-08 16:48:00,
2013-04-08 12:54:00,62.6,37.9,30.09,NNW,339,2.9,6.9,40,0.00,,,0.00,meteobridge,2013-04-08 16:54:00,
2013-04-08 12:59:00,63.0,38.3,30.08,North,0,4.9,6.9,40,0.00,,,0.00,meteobridge,2013-04-08 16:59:00,
2013-04-08 13:04:00,63.1,37.8,30.08,WNW,286,4.0,4.9,39,0.00,,,0.00,meteobridge,2013-04-08 17:04:00,
2013-04-08 13:09:00,63.1,37.8,30.09,NNW,348,2.0,4.9,39,0.00,,,0.00,meteobridge,2013-04-08 17:09:00,
2013-04-08 13:14:00,63.3,38.7,30.08,WSW,257,4.0,6.0,40,0.00,,,0.00,meteobridge,2013-04-08 17:14:00,
2013-04-08 13:19:00,63.7,38.3,30.08,NW,317,2.0,4.9,39,0.00,,,0.00,meteobridge,2013-04-08 17:19:00,
2013-04-08 13:25:00,63.9,37.8,30.08,NNW,328,2.0,8.1,38,0.00,,,0.00,meteobridge,2013-04-08 17:25:00,
2013-04-08 13:30:00,64.0,38.7,30.08,North,355,4.9,4.9,39,0.00,,,0.00,meteobridge,2013-04-08 17:30:00,
2013-04-08 13:35:00,64.6,38.5,30.08,NW,317,2.0,4.0,38,0.00,,,0.00,meteobridge,2013-04-08 17:35:00,
2013-04-08 13:40:00,65.1,38.8,30.08,West,265,0.9,6.0,38,0.00,,,0.00,meteobridge,2013-04-08 17:40:00,
2013-04-08 13:45:00,65.8,38.1,30.08,WNW,296,0.9,4.9,36,0.00,,,0.00,meteobridge,2013-04-08 17:45:00,
2013-04-08 13:51:00,66.4,38.7,30.07,WNW,294,0.9,2.9,36,0.00,,,0.00,meteobridge,2013-04-08 17:51:00,
2013-04-08 13:56:00,66.7,39.0,30.07,NNW,331,2.0,2.9,36,0.00,,,0.00,meteobridge,2013-04-08 17:56:00,
2013-04-08 14:01:00,67.3,39.4,30.07,SSW,198,0.9,2.9,36,0.00,,,0.00,meteobridge,2013-04-08 18:01:00,
2013-04-08 14:07:00,67.8,38.5,30.07,West,277,0.9,4.9,34,0.00,,,0.00,meteobridge,2013-04-08 18:07:00,
2013-04-08 14:12:00,68.0,38.7,30.06,WNW,297,0.9,4.0,34,0.00,,,0.00,meteobridge,2013-04-08 18:12:00,
2013-04-08 14:17:00,68.4,38.1,30.06,North,355,2.0,4.9,33,0.00,,,0.00,meteobridge,2013-04-08 18:17:00,
2013-04-08 14:23:00,67.8,36.9,30.06,WNW,293,2.9,4.9,32,0.00,,,0.00,meteobridge,2013-04-08 18:23:00,
2013-04-08 14:28:00,67.5,38.1,30.06,NNW,348,0.0,0.9,34,0.00,,,0.00,meteobridge,2013-04-08 18:28:00,
2013-04-08 14:33:00,67.3,38.7,30.06,WNW,302,0.9,2.0,35,0.00,,,0.00,meteobridge,2013-04-08 18:33:00,
2013-04-08 14:39:00,67.6,39.0,30.07,West,277,2.9,4.0,35,0.00,,,0.00,meteobridge,2013-04-08 18:39:00,
2013-04-08 14:44:00,68.4,37.4,30.06,WNW,286,0.0,2.0,32,0.00,,,0.00,meteobridge,2013-04-08 18:44:00,
2013-04-08 14:49:00,69.1,37.9,30.06,WSW,248,0.0,2.9,32,0.00,,,0.00,meteobridge,2013-04-08 18:49:00,
2013-04-08 14:55:00,69.8,38.7,30.05,North,5,0.0,0.9,32,0.00,,,0.00,meteobridge,2013-04-08 18:55:00,
2013-04-08 15:00:00,70.5,37.6,30.05,West,280,0.9,4.9,30,0.00,,,0.00,meteobridge,2013-04-08 19:00:00,
2013-04-08 15:05:00,70.5,39.2,30.05,WNW,290,2.9,4.0,32,0.00,,,0.00,meteobridge,2013-04-08 19:05:00,
2013-04-08 15:10:00,70.9,38.7,30.05,South,188,2.9,4.0,31,0.00,,,0.00,meteobridge,2013-04-08 19:10:00,
2013-04-08 15:15:00,71.1,38.1,30.04,SSW,200,0.9,4.0,30,0.00,,,0.00,meteobridge,2013-04-08 19:15:00,
2013-04-08 15:20:00,71.1,37.2,30.04,NNW,329,0.9,4.0,29,0.00,,,0.00,meteobridge,2013-04-08 19:20:00,
2013-04-08 15:25:00,71.1,37.2,30.04,WNW,303,2.0,2.0,29,0.00,,,0.00,meteobridge,2013-04-08 19:25:00,
2013-04-08 15:31:00,71.2,37.4,30.04,West,271,0.9,0.9,29,0.00,,,0.00,meteobridge,2013-04-08 19:31:00,
2013-04-08 15:36:00,71.4,37.6,30.04,WSW,254,0.0,2.0,29,0.00,,,0.00,meteobridge,2013-04-08 19:36:00,
2013-04-08 15:41:00,71.8,38.7,30.04,South,190,2.0,4.9,30,0.00,,,0.00,meteobridge,2013-04-08 19:41:00,
2013-04-08 15:46:00,71.2,38.3,30.04,South,189,0.9,0.9,30,0.00,,,0.00,meteobridge,2013-04-08 19:46:00,
2013-04-08 15:51:00,70.7,36.9,30.03,SW,230,0.9,2.0,29,0.00,,,0.00,meteobridge,2013-04-08 19:51:00,
2013-04-08 15:56:00,70.2,38.1,30.03,SSW,211,2.9,4.9,31,0.00,,,0.00,meteobridge,2013-04-08 19:56:00,
2013-04-08 16:02:00,69.6,37.6,30.03,SSW,202,0.0,2.9,31,0.00,,,0.00,meteobridge,2013-04-08 20:02:00,
2013-04-08 16:07:00,69.3,36.5,30.03,WNW,299,0.0,2.0,30,0.00,,,0.00,meteobridge,2013-04-08 20:07:00,
2013-04-08 16:12:00,69.1,37.2,30.03,WNW,293,0.9,4.0,31,0.00,,,0.00,meteobridge,2013-04-08 20:12:00,
2013-04-08 16:17:00,69.1,36.3,30.03,WNW,284,0.0,2.9,30,0.00,,,0.00,meteobridge,2013-04-08 20:17:00,
2013-04-08 16:22:00,68.7,36.9,30.02,WNW,288,0.9,4.0,31,0.00,,,0.00,meteobridge,2013-04-08 20:22:00,
2013-04-08 16:28:00,68.5,36.7,30.02,NW,311,0.9,2.9,31,0.00,,,0.00,meteobridge,2013-04-08 20:28:00,
2013-04-08 16:33:00,68.7,36.9,30.02,WSW,252,2.0,2.0,31,0.00,,,0.00,meteobridge,2013-04-08 20:33:00,
2013-04-08 16:38:00,68.7,36.9,30.02,WNW,303,0.0,0.9,31,0.00,,,0.00,meteobridge,2013-04-08 20:38:00,
2013-04-08 16:43:00,69.1,37.2,30.02,NW,321,0.9,2.0,31,0.00,,,0.00,meteobridge,2013-04-08 20:43:00,
2013-04-08 16:48:00,69.3,38.1,30.02,NNW,331,0.0,2.0,32,0.00,,,0.00,meteobridge,2013-04-08 20:48:00,
2013-04-08 16:54:00,69.4,37.4,30.02,NNW,329,0.9,2.0,31,0.00,,,0.00,meteobridge,2013-04-08 20:54:00,
2013-04-08 16:59:00,69.4,37.4,30.02,NNW,334,2.0,2.0,31,0.00,,,0.00,meteobridge,2013-04-08 20:59:00,
2013-04-08 17:04:00,69.6,37.6,30.02,West,277,2.0,2.9,31,0.00,,,0.00,meteobridge,2013-04-08 21:04:00,
2013-04-08 17:09:00,69.4,36.7,30.01,West,273,0.0,0.0,30,0.00,,,0.00,meteobridge,2013-04-08 21:09:00,
2013-04-08 17:14:00,69.4,36.7,30.01,West,273,0.0,0.9,30,0.00,,,0.00,meteobridge,2013-04-08 21:14:00,
2013-04-08 17:19:00,69.4,36.7,30.02,SSW,198,0.9,2.9,30,0.00,,,0.00,meteobridge,2013-04-08 21:19:00,
2013-04-08 17:25:00,69.6,36.9,30.02,SSW,198,0.0,0.9,30,0.00,,,0.00,meteobridge,2013-04-08 21:25:00,
2013-04-08 17:30:00,70.0,37.0,30.02,WSW,257,0.9,0.9,30,0.00,,,0.00,meteobridge,2013-04-08 21:30:00,
2013-04-08 17:36:00,70.3,37.4,30.02,West,259,0.0,0.0,30,0.00,,,0.00,meteobridge,2013-04-08 21:36:00,
2013-04-08 17:41:00,70.3,36.5,30.01,West,264,0.0,0.0,29,0.00,,,0.00,meteobridge,2013-04-08 21:41:00,
2013-04-08 17:46:00,70.3,37.4,30.01,West,264,0.0,0.0,30,0.00,,,0.00,meteobridge,2013-04-08 21:46:00,
2013-04-08 17:52:00,69.6,38.5,30.02,SW,221,0.9,4.0,32,0.00,,,0.00,meteobridge,2013-04-08 21:52:00,
2013-04-08 17:57:00,69.3,38.8,30.02,South,190,0.9,6.9,33,0.00,,,0.00,meteobridge,2013-04-08 21:57:00,
2013-04-08 18:02:00,68.5,39.0,30.02,SSW,210,2.9,6.0,34,0.00,,,0.00,meteobridge,2013-04-08 22:02:00,
2013-04-08 18:07:00,68.2,39.6,30.02,SSW,205,0.0,4.0,35,0.00,,,0.00,meteobridge,2013-04-08 22:07:00,
2013-04-08 18:13:00,67.8,39.2,30.02,SSW,207,4.0,6.0,35,0.00,,,0.00,meteobridge,2013-04-08 22:13:00,
2013-04-08 18:19:00,67.5,38.8,30.02,SSW,202,0.0,4.0,35,0.00,,,0.00,meteobridge,2013-04-08 22:19:00,
2013-04-08 18:24:00,67.3,38.7,30.02,SE,140,0.9,2.0,35,0.00,,,0.00,meteobridge,2013-04-08 22:24:00,
2013-04-08 18:29:00,66.9,38.3,30.02,SSE,157,0.0,2.0,35,0.00,,,0.00,meteobridge,2013-04-08 22:29:00,
2013-04-08 18:34:00,66.7,39.0,30.02,SE,142,0.0,2.0,36,0.00,,,0.00,meteobridge,2013-04-08 22:34:00,
2013-04-08 18:40:00,66.6,38.8,30.02,SE,142,0.0,0.9,36,0.00,,,0.00,meteobridge,2013-04-08 22:40:00,
2013-04-08 18:45:00,66.2,38.5,30.03,East,101,0.0,0.9,36,0.00,,,0.00,meteobridge,2013-04-08 22:45:00,
2013-04-08 18:50:00,66.0,39.0,30.03,SSE,155,0.0,0.9,37,0.00,,,0.00,meteobridge,2013-04-08 22:50:00,
2013-04-08 18:56:00,65.7,38.7,30.03,SSW,204,0.9,4.0,37,0.00,,,0.00,meteobridge,2013-04-08 22:56:00,
2013-04-08 19:02:00,65.3,39.0,30.03,South,180,0.0,0.9,38,0.00,,,0.00,meteobridge,2013-04-08 23:02:00,
2013-04-08 19:07:00,64.9,40.1,30.02,SSW,209,0.0,2.0,40,0.00,,,0.00,meteobridge,2013-04-08 23:07:00,
2013-04-08 19:12:00,64.6,41.5,30.03,SSW,202,2.9,6.9,43,0.00,,,0.00,meteobridge,2013-04-08 23:12:00,
2013-04-08 19:18:00,64.0,41.7,30.03,SE,126,0.9,2.0,44,0.00,,,0.00,meteobridge,2013-04-08 23:18:00,
2013-04-08 19:23:00,63.9,42.1,30.03,South,190,0.0,4.0,45,0.00,,,0.00,meteobridge,2013-04-08 23:23:00,
2013-04-08 19:28:00,63.5,41.7,30.03,SSW,208,0.0,2.0,45,0.00,,,0.00,meteobridge,2013-04-08 23:28:00,
2013-04-08 19:33:00,63.3,42.3,30.03,SSW,202,0.9,6.0,46,0.00,,,0.00,meteobridge,2013-04-08 23:33:00,
2013-04-08 19:38:00,63.0,42.4,30.03,South,191,0.9,0.9,47,0.00,,,0.00,meteobridge,2013-04-08 23:38:00,
2013-04-08 19:43:00,62.8,42.3,30.04,SSW,200,0.9,2.9,47,0.00,,,0.00,meteobridge,2013-04-08 23:43:00,
2013-04-08 19:49:00,62.4,41.9,30.04,SSW,213,0.0,2.0,47,0.00,,,0.00,meteobridge,2013-04-08 23:49:00,
2013-04-08 19:55:00,62.1,42.1,30.04,South,190,2.0,4.9,48,0.00,,,0.00,meteobridge,2013-04-08 23:55:00,
2013-04-08 20:00:00,61.9,41.9,30.04,NE,49,0.0,2.0,48,0.00,,,0.00,meteobridge,2013-04-09 00:00:00,
2013-04-08 20:05:00,61.5,42.3,30.04,SSW,207,0.0,2.0,49,0.00,,,0.00,meteobridge,2013-04-09 00:05:00,
2013-04-08 20:10:00,61.3,42.1,30.05,South,177,0.9,4.0,49,0.00,,,0.00,meteobridge,2013-04-09 00:10:00,
2013-04-08 20:16:00,61.0,42.3,30.05,South,184,0.0,2.9,50,0.00,,,0.00,meteobridge,2013-04-09 00:16:00,
2013-04-08 20:22:00,60.6,41.9,30.04,West,261,0.9,2.9,50,0.00,,,0.00,meteobridge,2013-04-09 00:22:00,
2013-04-08 20:27:00,60.4,41.7,30.05,SSW,207,0.0,2.0,50,0.00,,,0.00,meteobridge,2013-04-09 00:27:00,
2013-04-08 20:32:00,60.3,41.5,30.05,SSW,194,0.0,0.0,50,0.00,,,0.00,meteobridge,2013-04-09 00:32:00,
2013-04-08 20:37:00,60.1,41.9,30.05,SSW,194,0.0,0.0,51,0.00,,,0.00,meteobridge,2013-04-09 00:37:00,
2013-04-08 20:42:00,59.7,41.5,30.05,SSW,194,0.0,0.0,51,0.00,,,0.00,meteobridge,2013-04-09 00:42:00,
2013-04-08 20:48:00,59.5,41.9,30.05,SSW,194,0.0,0.0,52,0.00,,,0.00,meteobridge,2013-04-09 00:48:00,
2013-04-08 20:53:00,59.5,41.4,30.05,SSW,194,0.0,0.0,51,0.00,,,0.00,meteobridge,2013-04-09 00:53:00,
2013-04-08 20:59:00,59.4,41.2,30.05,SSW,194,0.0,0.0,51,0.00,,,0.00,meteobridge,2013-04-09 00:59:00,
2013-04-08 21:05:00,59.2,41.0,30.05,SSW,194,0.0,0.0,51,0.00,,,0.00,meteobridge,2013-04-09 01:05:00,
2013-04-08 21:10:00,58.8,41.2,30.05,SSW,194,0.0,0.0,52,0.00,,,0.00,meteobridge,2013-04-09 01:10:00,
2013-04-08 21:15:00,58.6,41.0,30.06,SSW,194,0.0,0.0,52,0.00,,,0.00,meteobridge,2013-04-09 01:15:00,
2013-04-08 21:21:00,58.5,40.8,30.06,SSW,194,0.0,0.0,52,0.00,,,0.00,meteobridge,2013-04-09 01:21:00,
2013-04-08 21:26:00,58.3,41.2,30.06,SSW,194,0.0,0.0,53,0.00,,,0.00,meteobridge,2013-04-09 01:26:00,
2013-04-08 21:31:00,58.1,41.0,30.06,SSW,194,0.0,0.0,53,0.00,,,0.00,meteobridge,2013-04-09 01:31:00,
2013-04-08 21:37:00,57.9,40.8,30.06,SSW,194,0.0,0.0,53,0.00,,,0.00,meteobridge,2013-04-09 01:37:00,
2013-04-08 21:43:00,57.7,40.6,30.06,SSW,194,0.0,0.0,53,0.00,,,0.00,meteobridge,2013-04-09 01:43:00,
2013-04-08 21:48:00,57.6,40.6,30.05,SSW,194,0.0,0.0,53,0.00,,,0.00,meteobridge,2013-04-09 01:48:00,
2013-04-08 21:54:00,57.4,40.8,30.04,South,185,0.0,0.0,54,0.00,,,0.00,meteobridge,2013-04-09 01:54:00,
2013-04-08 21:59:00,57.0,41.0,30.04,SSE,167,0.0,0.0,55,0.00,,,0.00,meteobridge,2013-04-09 01:59:00,
2013-04-08 22:05:00,56.8,40.8,30.04,SSE,166,0.0,0.9,55,0.00,,,0.00,meteobridge,2013-04-09 02:05:00,
2013-04-08 22:10:00,56.7,40.6,30.04,SE,145,0.0,0.9,55,0.00,,,0.00,meteobridge,2013-04-09 02:10:00,
2013-04-08 22:16:00,56.5,40.5,30.05,ESE,111,0.0,0.9,55,0.00,,,0.00,meteobridge,2013-04-09 02:16:00,
2013-04-08 22:22:00,56.1,40.6,30.04,NW,319,0.0,0.9,56,0.00,,,0.00,meteobridge,2013-04-09 02:22:00,
2013-04-08 22:27:00,56.1,41.2,30.04,NW,319,0.0,0.0,57,0.00,,,0.00,meteobridge,2013-04-09 02:27:00,
2013-04-08 22:32:00,55.9,41.0,30.04,South,182,0.0,2.9,57,0.00,,,0.00,meteobridge,2013-04-09 02:32:00,
2013-04-08 22:38:00,55.9,41.0,30.04,SSW,207,0.9,0.9,57,0.00,,,0.00,meteobridge,2013-04-09 02:38:00,
2013-04-08 22:43:00,55.9,41.0,30.04,SSW,198,0.0,0.0,57,0.00,,,0.00,meteobridge,2013-04-09 02:43:00,
2013-04-08 22:48:00,55.9,41.4,30.04,NE,46,0.0,0.9,58,0.00,,,0.00,meteobridge,2013-04-09 02:48:00,
2013-04-08 22:54:00,55.8,41.2,30.04,NNE,23,0.0,2.0,58,0.00,,,0.00,meteobridge,2013-04-09 02:54:00,
2013-04-08 22:59:00,55.8,41.2,30.04,NNE,23,0.9,0.9,58,0.00,,,0.00,meteobridge,2013-04-09 02:59:00,
2013-04-08 23:04:00,55.8,41.2,30.04,NNE,23,0.9,2.0,58,0.00,,,0.00,meteobridge,2013-04-09 03:04:00,
2013-04-08 23:10:00,55.6,41.0,30.04,NNE,22,0.0,0.0,58,0.00,,,0.00,meteobridge,2013-04-09 03:10:00,
2013-04-08 23:15:00,55.6,41.5,30.03,NNE,22,0.0,2.0,59,0.00,,,0.00,meteobridge,2013-04-09 03:15:00,
2013-04-08 23:21:00,55.2,41.2,30.03,ENE,63,0.0,0.0,59,0.00,,,0.00,meteobridge,2013-04-09 03:21:00,
2013-04-08 23:26:00,55.2,41.5,30.03,ENE,63,0.0,0.9,60,0.00,,,0.00,meteobridge,2013-04-09 03:26:00,
2013-04-08 23:31:00,55.2,41.5,30.03,ENE,63,0.0,0.0,60,0.00,,,0.00,meteobridge,2013-04-09 03:31:00,
2013-04-08 23:36:00,55.2,41.5,30.03,ENE,63,0.0,0.9,60,0.00,,,0.00,meteobridge,2013-04-09 03:36:00,
2013-04-08 23:41:00,55.0,41.9,30.02,ENE,63,0.0,0.0,61,0.00,,,0.00,meteobridge,2013-04-09 03:41:00,
2013-04-08 23:46:00,55.0,41.9,30.02,ENE,63,0.0,0.0,61,0.00,,,0.00,meteobridge,2013-04-09 03:46:00,
2013-04-08 23:52:00,54.9,41.7,30.02,ENE,63,0.0,0.9,61,0.00,,,0.00,meteobridge,2013-04-09 03:52:00,
2013-04-08 23:57:00,54.9,42.1,30.02,ENE,63,0.0,0.0,62,0.00,,,0.00,meteobridge,2013-04-09 03:57:00,